08-09-2022, 00:00:00,    164,    1.5,   13.0,   0.00,   0.00, 1003.7,   84.7, -999.0
08-09-2022, 00:00:10,    164,    0.2,   13.1,   0.00,   0.00, 1003.7,   84.5, -999.0
08-09-2022, 00:00:20,    164,    0.0,   13.0,   0.00,   0.00, 1003.6,   84.3, -999.0
08-09-2022, 00:00:30,    164,    0.1,   13.0,   0.00,   0.00, 1003.6,   84.7, -999.0
08-09-2022, 00:00:40,    164,    0.0,   13.0,   0.00,   0.00, 1003.6,   84.6, -999.0
08-09-2022, 00:00:50,    164,    0.7,   13.2,   0.00,   0.00, 1003.7,   85.0, -999.0
08-09-2022, 00:00:59,    164,    0.0,   13.0,   0.00,   0.00, 1003.6,   84.8, -999.0
08-09-2022, 00:01:10,    164,    0.0,   13.1,   0.00,   0.00, 1003.6,   84.7, -999.0
08-09-2022, 00:01:19,    164,    0.0,   13.1,   0.00,   0.00, 1003.6,   84.7, -999.0
08-09-2022, 00:01:29,    164,    0.5,   13.1,   0.00,   0.00, 1003.7,   84.9, -999.0
08-09-2022, 00:01:39,    164,    1.0,   13.3,   0.00,   0.00, 1003.7,   85.1, -999.0
08-09-2022, 00:01:49,    163,    0.4,   13.2,   0.00,   0.00, 1003.7,   85.1, -999.0
08-09-2022, 00:01:59,    163,    0.6,   13.2,   0.00,   0.00, 1003.7,   85.1, -999.0
08-09-2022, 00:02:09,    164,    0.1,   13.2,   0.00,   0.00, 1003.6,   84.9, -999.0
08-09-2022, 00:02:19,    164,    1.0,   13.2,   0.00,   0.00, 1003.7,   84.9, -999.0
08-09-2022, 00:02:29,    102,    1.1,   13.2,   0.00,   0.00, 1003.7,   84.9, -999.0
08-09-2022, 00:02:39,    138,    0.8,   13.3,   0.00,   0.00, 1003.7,   84.8, -999.0
08-09-2022, 00:02:49,    138,    0.4,   13.3,   0.00,   0.00, 1003.6,   84.7, -999.0
08-09-2022, 00:02:59,    137,    0.0,   13.1,   0.00,   0.00, 1003.5,   84.5, -999.0
08-09-2022, 00:03:09,    114,    2.4,   13.2,   0.00,   0.00, 1003.7,   84.8, -999.0
08-09-2022, 00:03:19,    142,    1.7,   13.2,   0.00,   0.00, 1003.6,   84.8, -999.0
08-09-2022, 00:03:28,    102,    2.1,   13.2,   0.00,   0.00, 1003.6,   84.7, -999.0
08-09-2022, 00:03:39,    115,    1.1,   13.2,   0.00,   0.00, 1003.6,   84.8, -999.0
08-09-2022, 00:03:49,    132,    1.1,   13.2,   0.00,   0.00, 1003.7,   84.8, -999.0
08-09-2022, 00:03:58,    106,    2.0,   13.2,   0.00,   0.00, 1003.6,   84.8, -999.0
08-09-2022, 00:04:08,    106,    1.7,   13.2,   0.00,   0.00, 1003.7,   84.8, -999.0
08-09-2022, 00:04:19,    106,    0.6,   13.2,   0.00,   0.00, 1003.6,   84.8, -999.0
08-09-2022, 00:04:28,    106,    0.1,   13.1,   0.00,   0.00, 1003.5,   84.6, -999.0
08-09-2022, 00:04:38,    147,    0.1,   13.1,   0.00,   0.00, 1003.6,   84.4, -999.0
08-09-2022, 00:04:48,    162,    0.7,   13.1,   0.00,   0.00, 1003.6,   84.8, -999.0
08-09-2022, 00:04:58,    162,    0.8,   13.1,   0.00,   0.00, 1003.6,   84.7, -999.0
08-09-2022, 00:05:08,    162,    0.6,   13.1,   0.00,   0.00, 1003.6,   84.8, -999.0
08-09-2022, 00:05:18,    162,    0.4,   13.1,   0.00,   0.00, 1003.6,   84.7, -999.0
08-09-2022, 00:05:28,    162,    0.1,   13.0,   0.00,   0.00, 1003.5,   84.6, -999.0
08-09-2022, 00:05:38,    161,    0.0,   13.0,   0.00,   0.00, 1003.4,   84.6, -999.0
08-09-2022, 00:05:48,    161,    0.0,   13.0,   0.00,   0.00, 1003.4,   84.6, -999.0
08-09-2022, 00:05:58,    161,    0.2,   13.0,   0.00,   0.00, 1003.5,   84.8, -999.0
08-09-2022, 00:06:08,    161,    0.3,   13.0,   0.00,   0.00, 1003.5,   84.9, -999.0
08-09-2022, 00:06:18,    130,    2.0,   13.1,   0.00,   0.00, 1003.6,   85.2, -999.0
08-09-2022, 00:06:28,    130,    1.9,   13.1,   0.00,   0.00, 1003.5,   85.3, -999.0
08-09-2022, 00:06:37,     93,    2.1,   13.1,   0.00,   0.00, 1003.6,   85.2, -999.0
08-09-2022, 00:06:48,    144,    2.2,   13.1,   0.00,   0.00, 1003.6,   85.2, -999.0
08-09-2022, 00:06:57,    143,    0.2,   13.1,   0.00,   0.00, 1003.5,   85.1, -999.0
08-09-2022, 00:07:07,    143,    0.2,   13.1,   0.00,   0.00, 1003.5,   85.2, -999.0
08-09-2022, 00:07:18,    143,    0.3,   13.1,   0.00,   0.00, 1003.5,   85.2, -999.0
08-09-2022, 00:07:27,    156,    1.5,   13.1,   0.00,   0.00, 1003.6,   85.2, -999.0
08-09-2022, 00:07:37,    156,    1.1,   13.1,   0.00,   0.00, 1003.6,   85.2, -999.0
08-09-2022, 00:07:47,    155,    0.1,   13.0,   0.00,   0.00, 1003.5,   85.0, -999.0
08-09-2022, 00:07:57,    156,    0.6,   13.1,   0.00,   0.00, 1003.5,   85.2, -999.0
08-09-2022, 00:08:07,    156,    0.4,   13.1,   0.00,   0.00, 1003.5,   85.2, -999.0
08-09-2022, 00:08:17,    156,    0.7,   13.1,   0.00,   0.00, 1003.5,   85.3, -999.0
08-09-2022, 00:08:27,    155,    0.0,   13.0,   0.00,   0.00, 1003.4,   85.0, -999.0
08-09-2022, 00:08:37,    155,    0.0,   13.0,   0.00,   0.00, 1003.5,   84.9, -999.0
08-09-2022, 00:08:47,    155,    0.0,   13.0,   0.00,   0.00, 1003.4,   84.8, -999.0
08-09-2022, 00:08:57,    156,    0.4,   13.0,   0.00,   0.00, 1003.5,   85.1, -999.0
08-09-2022, 00:09:07,    156,    1.3,   13.0,   0.00,   0.00, 1003.6,   85.3, -999.0
08-09-2022, 00:09:17,    156,    1.0,   13.0,   0.00,   0.00, 1003.5,   85.4, -999.0
08-09-2022, 00:09:27,    156,    0.6,   13.0,   0.00,   0.00, 1003.5,   85.4, -999.0
08-09-2022, 00:09:36,    156,    1.2,   13.1,   0.00,   0.00, 1003.5,   85.5, -999.0
08-09-2022, 00:09:47,    155,    0.6,   13.0,   0.00,   0.00, 1003.5,   85.4, -999.0
08-09-2022, 00:09:57,    155,    0.4,   13.1,   0.00,   0.00, 1003.5,   85.5, -999.0
08-09-2022, 00:10:06,    155,    0.3,   13.0,   0.00,   0.00, 1003.5,   85.4, -999.0
08-09-2022, 00:10:16,    156,    0.3,   13.0,   0.00,   0.00, 1003.5,   85.4, -999.0
08-09-2022, 00:10:26,    155,    0.0,   13.0,   0.00,   0.00, 1003.4,   85.2, -999.0
08-09-2022, 00:10:36,    155,    1.2,   13.1,   0.00,   0.00, 1003.5,   85.5, -999.0
08-09-2022, 00:10:46,    155,    1.8,   13.0,   0.00,   0.00, 1003.5,   85.6, -999.0
08-09-2022, 00:10:56,    155,    1.0,   13.1,   0.00,   0.00, 1003.5,   85.5, -999.0
08-09-2022, 00:11:06,    155,    0.7,   13.0,   0.00,   0.00, 1003.6,   85.5, -999.0
08-09-2022, 00:11:16,    155,    0.2,   13.1,   0.00,   0.00, 1003.5,   85.5, -999.0
08-09-2022, 00:11:26,    154,    0.0,   13.0,   0.00,   0.00, 1003.4,   85.4, -999.0
08-09-2022, 00:11:36,    155,    0.0,   13.0,   0.00,   0.00, 1003.4,   85.3, -999.0
08-09-2022, 00:11:46,    155,    0.6,   13.1,   0.00,   0.00, 1003.6,   85.7, -999.0
08-09-2022, 00:11:56,    154,    0.0,   13.0,   0.00,   0.00, 1003.4,   85.2, -999.0
08-09-2022, 00:12:06,    155,    0.3,   13.1,   0.00,   0.00, 1003.5,   85.5, -999.0
08-09-2022, 00:12:16,    154,    0.0,   13.1,   0.00,   0.00, 1003.4,   85.3, -999.0
08-09-2022, 00:12:26,    155,    0.0,   13.0,   0.00,   0.00, 1003.4,   85.3, -999.0
08-09-2022, 00:12:36,    154,    0.0,   13.0,   0.00,   0.00, 1003.4,   85.3, -999.0
08-09-2022, 00:12:45,    155,    0.0,   13.1,   0.00,   0.00, 1003.4,   85.2, -999.0
08-09-2022, 00:12:56,    154,    0.0,   13.1,   0.00,   0.00, 1003.4,   85.3, -999.0
08-09-2022, 00:13:05,    154,    0.0,   13.0,   0.00,   0.00, 1003.4,   85.2, -999.0
08-09-2022, 00:13:15,    154,    0.0,   13.1,   0.00,   0.00, 1003.4,   85.1, -999.0
08-09-2022, 00:13:25,    155,    0.0,   13.0,   0.00,   0.00, 1003.4,   85.3, -999.0
08-09-2022, 00:13:35,    155,    0.0,   13.1,   0.00,   0.00, 1003.4,   85.2, -999.0
08-09-2022, 00:13:45,    154,    0.0,   12.9,   0.00,   0.00, 1003.4,   85.1, -999.0
08-09-2022, 00:13:55,    154,    0.0,   13.0,   0.00,   0.00, 1003.4,   84.9, -999.0
08-09-2022, 00:14:05,    154,    0.0,   13.0,   0.00,   0.00, 1003.4,   84.8, -999.0
08-09-2022, 00:14:15,    155,    0.0,   12.9,   0.00,   0.00, 1003.4,   84.8, -999.0
08-09-2022, 00:14:25,    154,    0.0,   13.0,   0.00,   0.00, 1003.4,   84.9, -999.0
08-09-2022, 00:14:35,    155,    0.6,   13.1,   0.00,   0.00, 1003.5,   85.2, -999.0
08-09-2022, 00:14:45,    155,    0.7,   13.1,   0.00,   0.00, 1003.5,   85.5, -999.0
08-09-2022, 00:14:55,    155,    1.8,   13.2,   0.00,   0.00, 1003.5,   85.6, -999.0
08-09-2022, 00:15:05,    155,    0.1,   13.2,   0.00,   0.00, 1003.4,   85.3, -999.0
08-09-2022, 00:15:14,    154,    0.5,   13.1,   0.00,   0.00, 1003.5,   85.4, -999.0
08-09-2022, 00:15:25,    154,    0.3,   13.1,   0.00,   0.00, 1003.5,   85.3, -999.0
08-09-2022, 00:15:35,    155,    0.2,   13.1,   0.00,   0.00, 1003.4,   85.1, -999.0
08-09-2022, 00:15:44,    155,    1.2,   13.0,   0.00,   0.00, 1003.5,   85.3, -999.0
08-09-2022, 00:15:54,    155,    0.5,   13.1,   0.00,   0.00, 1003.5,   85.3, -999.0
08-09-2022, 00:16:05,    154,    0.1,   13.0,   0.00,   0.00, 1003.4,   85.0, -999.0
08-09-2022, 00:16:14,    153,    0.0,   13.0,   0.00,   0.00, 1003.3,   84.8, -999.0
08-09-2022, 00:16:24,    154,    0.1,   13.0,   0.00,   0.00, 1003.4,   85.0, -999.0
08-09-2022, 00:16:34,    154,    0.0,   13.0,   0.00,   0.00, 1003.3,   84.9, -999.0
08-09-2022, 00:16:44,    155,    0.0,   12.9,   0.00,   0.00, 1003.3,   84.9, -999.0
08-09-2022, 00:16:54,    155,    0.5,   13.0,   0.00,   0.00, 1003.5,   85.3, -999.0
08-09-2022, 00:17:04,    155,    0.3,   13.0,   0.00,   0.00, 1003.5,   85.2, -999.0
08-09-2022, 00:17:14,    154,    0.0,   13.0,   0.00,   0.00, 1003.3,   85.0, -999.0
08-09-2022, 00:17:24,    154,    0.0,   13.0,   0.00,   0.00, 1003.3,   85.0, -999.0
08-09-2022, 00:17:34,    154,    0.0,   12.9,   0.00,   0.00, 1003.3,   85.0, -999.0
08-09-2022, 00:17:44,    154,    0.0,   12.9,   0.00,   0.00, 1003.3,   85.2, -999.0
08-09-2022, 00:17:54,    155,    0.4,   13.0,   0.00,   0.00, 1003.4,   85.5, -999.0
08-09-2022, 00:18:04,    154,    0.6,   13.1,   0.00,   0.00, 1003.4,   85.5, -999.0
08-09-2022, 00:18:14,    154,    0.0,   13.0,   0.00,   0.00, 1003.3,   85.2, -999.0
08-09-2022, 00:18:23,    155,    0.3,   13.0,   0.00,   0.00, 1003.3,   85.3, -999.0
08-09-2022, 00:18:34,    154,    0.8,   13.0,   0.00,   0.00, 1003.4,   85.4, -999.0
08-09-2022, 00:18:44,    155,    0.0,   12.9,   0.00,   0.00, 1003.3,   85.2, -999.0
08-09-2022, 00:18:53,    154,    0.1,   12.9,   0.00,   0.00, 1003.3,   85.3, -999.0
08-09-2022, 00:19:03,    154,    0.0,   12.7,   0.00,   0.00, 1003.3,   85.1, -999.0
08-09-2022, 00:19:13,    155,    0.0,   12.9,   0.00,   0.00, 1003.3,   85.1, -999.0
08-09-2022, 00:19:23,    154,    0.0,   12.9,   0.00,   0.00, 1003.3,   85.2, -999.0
08-09-2022, 00:19:33,    155,    0.0,   12.9,   0.00,   0.00, 1003.3,   85.3, -999.0
08-09-2022, 00:19:43,    154,    0.0,   13.0,   0.00,   0.00, 1003.3,   85.3, -999.0
08-09-2022, 00:19:53,    154,    0.0,   13.0,   0.00,   0.00, 1003.3,   85.4, -999.0
08-09-2022, 00:20:03,    155,    0.1,   12.9,   0.00,   0.00, 1003.3,   85.5, -999.0
08-09-2022, 00:20:13,    154,    0.0,   12.9,   0.00,   0.00, 1003.3,   85.3, -999.0
08-09-2022, 00:20:23,    154,    0.0,   12.8,   0.00,   0.00, 1003.2,   85.3, -999.0
08-09-2022, 00:20:33,    154,    0.0,   12.9,   0.00,   0.00, 1003.3,   85.3, -999.0
08-09-2022, 00:20:43,    154,    0.0,   12.9,   0.00,   0.00, 1003.3,   85.3, -999.0
08-09-2022, 00:20:53,    154,    1.0,   12.9,   0.00,   0.00, 1003.4,   85.5, -999.0
08-09-2022, 00:21:03,    155,    1.1,   13.0,   0.00,   0.00, 1003.4,   85.6, -999.0
08-09-2022, 00:21:13,    154,    0.1,   12.9,   0.00,   0.00, 1003.3,   85.5, -999.0
08-09-2022, 00:21:23,    155,    0.0,   12.8,   0.00,   0.00, 1003.3,   85.3, -999.0
08-09-2022, 00:21:32,    154,    0.0,   12.8,   0.00,   0.00, 1003.3,   85.1, -999.0
08-09-2022, 00:21:43,    155,    0.0,   12.7,   0.00,   0.00, 1003.3,   85.3, -999.0
08-09-2022, 00:21:52,    155,    0.6,   12.8,   0.00,   0.00, 1003.3,   85.6, -999.0
08-09-2022, 00:22:02,    154,    0.2,   12.8,   0.00,   0.00, 1003.3,   85.6, -999.0
08-09-2022, 00:22:12,    154,    0.4,   12.9,   0.00,   0.00, 1003.3,   85.7, -999.0
08-09-2022, 00:22:22,    154,    0.0,   12.8,   0.00,   0.00, 1003.2,   85.5, -999.0
08-09-2022, 00:22:32,    154,    0.0,   12.8,   0.00,   0.00, 1003.2,   85.6, -999.0
08-09-2022, 00:22:42,    154,    0.0,   12.9,   0.00,   0.00, 1003.2,   85.7, -999.0
08-09-2022, 00:22:52,    155,    0.0,   12.8,   0.00,   0.00, 1003.2,   85.7, -999.0
08-09-2022, 00:23:02,    154,    0.0,   12.8,   0.00,   0.00, 1003.2,   85.8, -999.0
08-09-2022, 00:23:12,    154,    0.0,   12.7,   0.00,   0.00, 1003.2,   85.7, -999.0
08-09-2022, 00:23:22,    154,    0.0,   12.8,   0.00,   0.00, 1003.2,   85.6, -999.0
08-09-2022, 00:23:32,    155,    0.0,   12.8,   0.00,   0.00, 1003.2,   85.6, -999.0
08-09-2022, 00:23:42,    154,    0.0,   12.8,   0.00,   0.00, 1003.2,   85.6, -999.0
08-09-2022, 00:23:52,    154,    0.0,   12.8,   0.00,   0.00, 1003.2,   85.7, -999.0
08-09-2022, 00:24:02,    154,    0.0,   12.8,   0.00,   0.00, 1003.2,   85.8, -999.0
08-09-2022, 00:24:12,    154,    0.0,   12.9,   0.00,   0.00, 1003.2,   85.8, -999.0
08-09-2022, 00:24:22,    154,    0.0,   12.9,   0.00,   0.00, 1003.2,   85.9, -999.0
08-09-2022, 00:24:31,    154,    0.0,   12.8,   0.00,   0.00, 1003.2,   85.8, -999.0
08-09-2022, 00:24:41,    154,    0.0,   12.8,   0.00,   0.00, 1003.2,   85.6, -999.0
08-09-2022, 00:24:52,    155,    0.0,   12.9,   0.00,   0.00, 1003.2,   85.8, -999.0
08-09-2022, 00:25:01,    154,    0.0,   12.9,   0.00,   0.00, 1003.2,   85.8, -999.0
08-09-2022, 00:25:11,    154,    0.0,   12.9,   0.00,   0.00, 1003.2,   85.8, -999.0
08-09-2022, 00:25:21,    154,    0.0,   12.9,   0.00,   0.00, 1003.2,   85.9, -999.0
08-09-2022, 00:25:31,    154,    0.0,   12.9,   0.00,   0.00, 1003.2,   85.9, -999.0
08-09-2022, 00:25:41,    154,    0.0,   13.0,   0.00,   0.00, 1003.2,   85.8, -999.0
08-09-2022, 00:25:51,    154,    0.0,   13.0,   0.00,   0.00, 1003.2,   85.8, -999.0
08-09-2022, 00:26:01,    154,    0.0,   13.0,   0.00,   0.00, 1003.2,   85.8, -999.0
08-09-2022, 00:26:11,    154,    0.0,   12.9,   0.00,   0.00, 1003.2,   85.7, -999.0
08-09-2022, 00:26:21,    154,    0.0,   12.9,   0.00,   0.00, 1003.2,   85.6, -999.0
08-09-2022, 00:26:31,    154,    0.0,   12.8,   0.00,   0.00, 1003.1,   85.6, -999.0
08-09-2022, 00:26:41,    155,    0.0,   12.9,   0.00,   0.00, 1003.2,   85.6, -999.0
08-09-2022, 00:26:51,    154,    0.0,   12.9,   0.00,   0.00, 1003.2,   85.6, -999.0
08-09-2022, 00:27:01,    155,    0.0,   13.0,   0.00,   0.00, 1003.1,   85.6, -999.0
08-09-2022, 00:27:11,    154,    0.0,   13.0,   0.00,   0.00, 1003.1,   85.7, -999.0
08-09-2022, 00:27:21,    154,    0.0,   12.9,   0.00,   0.00, 1003.1,   85.6, -999.0
08-09-2022, 00:27:31,    154,    0.0,   12.9,   0.00,   0.00, 1003.1,   85.6, -999.0
08-09-2022, 00:27:40,    154,    0.0,   12.9,   0.00,   0.00, 1003.1,   85.5, -999.0
08-09-2022, 00:27:51,    154,    0.0,   12.9,   0.00,   0.00, 1003.1,   85.5, -999.0
08-09-2022, 00:28:00,    154,    0.0,   13.0,   0.00,   0.00, 1003.1,   85.6, -999.0
08-09-2022, 00:28:10,    154,    0.0,   13.0,   0.00,   0.00, 1003.1,   85.7, -999.0
08-09-2022, 00:28:20,    154,    0.0,   12.9,   0.00,   0.00, 1003.1,   85.7, -999.0
08-09-2022, 00:28:30,    154,    0.0,   12.9,   0.00,   0.00, 1003.1,   85.7, -999.0
08-09-2022, 00:28:40,    154,    0.0,   12.9,   0.00,   0.00, 1003.1,   85.7, -999.0
08-09-2022, 00:28:50,    154,    0.0,   12.9,   0.00,   0.00, 1003.1,   85.6, -999.0
08-09-2022, 00:29:00,    154,    0.0,   13.0,   0.00,   0.00, 1003.1,   85.5, -999.0
08-09-2022, 00:29:10,    156,    0.0,   13.0,   0.00,   0.00, 1003.1,   85.6, -999.0
08-09-2022, 00:29:20,    154,    0.0,   13.0,   0.00,   0.00, 1003.1,   85.7, -999.0
08-09-2022, 00:29:30,    154,    0.0,   13.0,   0.00,   0.00, 1003.1,   85.6, -999.0
08-09-2022, 00:29:40,    154,    0.0,   13.0,   0.00,   0.00, 1003.1,   85.7, -999.0
08-09-2022, 00:29:50,    155,    0.0,   13.0,   0.00,   0.00, 1003.0,   85.7, -999.0
08-09-2022, 00:30:00,    154,    0.0,   13.0,   0.00,   0.00, 1003.1,   85.7, -999.0
08-09-2022, 00:30:09,    154,    0.0,   13.0,   0.00,   0.00, 1003.1,   85.7, -999.0
08-09-2022, 00:30:20,    154,    0.0,   13.1,   0.00,   0.00, 1003.1,   85.7, -999.0
08-09-2022, 00:30:30,    155,    1.1,   13.0,   0.00,   0.00, 1003.1,   85.6, -999.0
08-09-2022, 00:30:39,    155,    0.5,   13.0,   0.00,   0.00, 1003.2,   85.5, -999.0
08-09-2022, 00:30:49,    155,    0.5,   13.0,   0.00,   0.00, 1003.2,   85.5, -999.0
08-09-2022, 00:31:00,    154,    0.5,   12.9,   0.00,   0.00, 1003.1,   85.4, -999.0
08-09-2022, 00:31:09,    155,    0.0,   12.9,   0.00,   0.00, 1003.1,   85.2, -999.0
08-09-2022, 00:31:19,    154,    0.2,   12.9,   0.00,   0.00, 1003.1,   85.5, -999.0
08-09-2022, 00:31:29,    154,    0.1,   12.9,   0.00,   0.00, 1003.1,   85.5, -999.0
08-09-2022, 00:31:39,    154,    0.0,   12.8,   0.00,   0.00, 1003.0,   85.4, -999.0
08-09-2022, 00:31:49,    154,    0.0,   12.8,   0.00,   0.00, 1003.1,   85.3, -999.0
08-09-2022, 00:31:59,    154,    0.0,   12.8,   0.00,   0.00, 1003.1,   85.5, -999.0
08-09-2022, 00:32:09,    154,    0.0,   12.9,   0.00,   0.00, 1003.1,   85.7, -999.0
08-09-2022, 00:32:19,    154,    0.0,   12.9,   0.00,   0.00, 1003.1,   85.9, -999.0
08-09-2022, 00:32:29,    154,    0.5,   12.9,   0.00,   0.00, 1003.2,   86.1, -999.0
08-09-2022, 00:32:39,    155,    0.7,   12.9,   0.00,   0.00, 1003.2,   86.0, -999.0
08-09-2022, 00:32:49,    154,    0.5,   12.9,   0.00,   0.00, 1003.1,   85.9, -999.0
08-09-2022, 00:32:59,    154,    0.1,   12.9,   0.00,   0.00, 1003.1,   85.9, -999.0
08-09-2022, 00:33:09,    154,    0.0,   12.8,   0.00,   0.00, 1003.0,   85.5, -999.0
08-09-2022, 00:33:18,    154,    0.0,   12.8,   0.00,   0.00, 1003.1,   85.7, -999.0
08-09-2022, 00:33:29,    154,    0.0,   12.7,   0.00,   0.00, 1003.1,   85.6, -999.0
08-09-2022, 00:33:38,    154,    0.0,   12.8,   0.00,   0.00, 1003.1,   85.7, -999.0
08-09-2022, 00:33:48,    155,    0.0,   12.8,   0.00,   0.00, 1003.0,   85.8, -999.0
08-09-2022, 00:33:58,    154,    0.0,   12.8,   0.00,   0.00, 1003.0,   85.8, -999.0
08-09-2022, 00:34:08,    154,    0.0,   12.8,   0.00,   0.00, 1003.0,   85.8, -999.0
08-09-2022, 00:34:18,    154,    0.0,   12.8,   0.00,   0.00, 1003.0,   85.7, -999.0
08-09-2022, 00:34:28,    154,    0.0,   12.8,   0.00,   0.00, 1003.1,   85.8, -999.0
08-09-2022, 00:34:38,    154,    0.0,   12.8,   0.00,   0.00, 1003.1,   85.9, -999.0
08-09-2022, 00:34:48,    154,    0.0,   12.8,   0.00,   0.00, 1003.0,   85.9, -999.0
08-09-2022, 00:34:58,    154,    0.0,   12.8,   0.00,   0.00, 1003.0,   85.9, -999.0
08-09-2022, 00:35:08,    155,    0.0,   12.8,   0.00,   0.00, 1003.0,   85.9, -999.0
08-09-2022, 00:35:18,    154,    0.0,   12.8,   0.00,   0.00, 1003.0,   85.8, -999.0
08-09-2022, 00:35:28,    154,    0.0,   12.8,   0.00,   0.00, 1003.0,   85.9, -999.0
08-09-2022, 00:35:38,    154,    0.0,   12.8,   0.00,   0.00, 1003.1,   85.9, -999.0
08-09-2022, 00:35:48,    154,    0.0,   12.8,   0.00,   0.00, 1003.0,   86.1, -999.0
08-09-2022, 00:35:58,    154,    0.0,   12.9,   0.00,   0.00, 1003.0,   86.1, -999.0
08-09-2022, 00:36:08,    154,    0.0,   12.8,   0.00,   0.00, 1003.0,   86.3, -999.0
08-09-2022, 00:36:18,    154,    0.0,   12.9,   0.00,   0.00, 1003.0,   86.3, -999.0
08-09-2022, 00:36:27,    154,    0.0,   12.9,   0.00,   0.00, 1003.0,   86.3, -999.0
08-09-2022, 00:36:38,    154,    0.0,   12.9,   0.00,   0.00, 1003.0,   86.2, -999.0
08-09-2022, 00:36:47,    154,    0.0,   12.9,   0.00,   0.00, 1003.0,   86.3, -999.0
08-09-2022, 00:36:57,    154,    0.3,   12.9,   0.00,   0.00, 1003.1,   86.5, -999.0
08-09-2022, 00:37:07,    154,    0.0,   12.9,   0.00,   0.00, 1003.0,   86.2, -999.0
08-09-2022, 00:37:17,    154,    0.1,   12.8,   0.00,   0.00, 1003.0,   85.9, -999.0
08-09-2022, 00:37:27,    179,    0.6,   12.9,   0.00,   0.00, 1003.1,   86.2, -999.0
08-09-2022, 00:37:37,    179,    0.3,   12.9,   0.00,   0.00, 1003.2,   86.4, -999.0
08-09-2022, 00:37:47,    178,    0.4,   12.9,   0.00,   0.00, 1003.1,   86.2, -999.0
08-09-2022, 00:37:57,    179,    0.0,   12.8,   0.00,   0.00, 1003.0,   86.0, -999.0
08-09-2022, 00:38:07,    178,    0.0,   12.8,   0.00,   0.00, 1003.0,   86.0, -999.0
08-09-2022, 00:38:17,    178,    0.0,   12.7,   0.00,   0.00, 1003.0,   85.9, -999.0
08-09-2022, 00:38:27,    178,    0.0,   12.8,   0.00,   0.00, 1003.0,   86.0, -999.0
08-09-2022, 00:38:37,    178,    0.0,   12.7,   0.00,   0.00, 1003.0,   86.0, -999.0
08-09-2022, 00:38:47,    178,    0.0,   12.8,   0.00,   0.00, 1003.0,   86.1, -999.0
08-09-2022, 00:38:56,    178,    0.0,   12.7,   0.00,   0.00, 1002.9,   86.1, -999.0
08-09-2022, 00:39:07,    178,    0.0,   12.7,   0.00,   0.00, 1003.0,   86.3, -999.0
08-09-2022, 00:39:17,    178,    0.0,   12.9,   0.00,   0.00, 1003.0,   86.4, -999.0
08-09-2022, 00:39:26,    177,    0.0,   12.8,   0.00,   0.00, 1003.0,   86.6, -999.0
08-09-2022, 00:39:36,    178,    0.0,   12.9,   0.00,   0.00, 1003.0,   86.5, -999.0
08-09-2022, 00:39:47,    178,    0.0,   12.8,   0.00,   0.00, 1003.0,   86.6, -999.0
08-09-2022, 00:39:56,    178,    0.0,   12.8,   0.00,   0.00, 1003.0,   86.4, -999.0
08-09-2022, 00:40:06,    178,    0.0,   12.8,   0.00,   0.00, 1003.0,   86.4, -999.0
08-09-2022, 00:40:16,    178,    0.0,   12.8,   0.00,   0.00, 1003.0,   86.4, -999.0
08-09-2022, 00:40:26,    178,    0.0,   12.8,   0.00,   0.00, 1003.0,   86.5, -999.0
08-09-2022, 00:40:36,    178,    0.5,   12.9,   0.00,   0.00, 1003.1,   86.6, -999.0
08-09-2022, 00:40:46,    178,    0.0,   12.9,   0.00,   0.00, 1003.0,   86.2, -999.0
08-09-2022, 00:40:56,    179,    0.0,   12.9,   0.00,   0.00, 1003.0,   86.4, -999.0
08-09-2022, 00:41:06,    178,    0.0,   13.0,   0.00,   0.00, 1003.0,   86.5, -999.0
08-09-2022, 00:41:16,    179,    0.3,   12.9,   0.00,   0.00, 1003.1,   86.6, -999.0
08-09-2022, 00:41:26,    179,    0.8,   13.0,   0.00,   0.00, 1003.1,   86.9, -999.0
08-09-2022, 00:41:36,    178,    0.0,   12.9,   0.00,   0.00, 1003.0,   86.5, -999.0
08-09-2022, 00:41:46,    179,    0.1,   12.9,   0.00,   0.00, 1003.0,   86.6, -999.0
08-09-2022, 00:41:56,    178,    0.2,   13.0,   0.00,   0.00, 1003.1,   86.8, -999.0
08-09-2022, 00:42:06,    178,    0.0,   12.8,   0.00,   0.00, 1002.9,   86.2, -999.0
08-09-2022, 00:42:16,    178,    0.0,   12.8,   0.00,   0.00, 1002.9,   86.2, -999.0
08-09-2022, 00:42:25,    178,    0.3,   12.8,   0.00,   0.00, 1003.0,   86.3, -999.0
08-09-2022, 00:42:35,    178,    0.4,   12.9,   0.00,   0.00, 1003.1,   86.5, -999.0
08-09-2022, 00:42:46,    178,    0.0,   12.8,   0.00,   0.00, 1003.0,   86.2, -999.0
08-09-2022, 00:42:55,    176,    1.3,   12.7,   0.00,   0.00, 1003.1,   86.6, -999.0
08-09-2022, 00:43:05,    177,    0.6,   12.8,   0.00,   0.00, 1003.1,   86.5, -999.0
08-09-2022, 00:43:15,    176,    0.0,   12.7,   0.00,   0.00, 1002.9,   86.3, -999.0
08-09-2022, 00:43:25,    176,    0.5,   12.8,   0.00,   0.00, 1003.0,   86.6, -999.0
08-09-2022, 00:43:35,    176,    0.3,   12.9,   0.00,   0.00, 1003.0,   86.7, -999.0
08-09-2022, 00:43:45,    166,    1.1,   12.8,   0.00,   0.00, 1003.1,   86.9, -999.0
08-09-2022, 00:43:55,    166,    0.5,   12.8,   0.00,   0.00, 1003.0,   86.9, -999.0
08-09-2022, 00:44:05,    166,    0.6,   12.8,   0.00,   0.00, 1003.1,   86.8, -999.0
08-09-2022, 00:44:15,    166,    0.6,   12.8,   0.00,   0.00, 1003.0,   86.8, -999.0
08-09-2022, 00:44:25,    166,    0.1,   12.7,   0.00,   0.00, 1003.0,   86.7, -999.0
08-09-2022, 00:44:35,    166,    0.1,   12.8,   0.00,   0.00, 1003.0,   86.7, -999.0
08-09-2022, 00:44:45,    166,    0.0,   12.8,   0.00,   0.00, 1003.0,   86.7, -999.0
08-09-2022, 00:44:55,    166,    0.0,   12.7,   0.00,   0.00, 1003.0,   86.5, -999.0
08-09-2022, 00:45:04,    168,    0.0,   12.7,   0.00,   0.00, 1002.9,   86.6, -999.0
08-09-2022, 00:45:15,    166,    0.0,   12.6,   0.00,   0.00, 1002.9,   86.7, -999.0
08-09-2022, 00:45:25,    166,    0.0,   12.7,   0.00,   0.00, 1002.9,   86.8, -999.0
08-09-2022, 00:45:34,    167,    0.0,   12.8,   0.00,   0.00, 1002.9,   86.8, -999.0
08-09-2022, 00:45:44,    166,    0.5,   12.8,   0.00,   0.00, 1003.0,   87.0, -999.0
08-09-2022, 00:45:55,    166,    1.7,   12.7,   0.00,   0.00, 1003.1,   87.2, -999.0
08-09-2022, 00:46:04,    166,    0.7,   12.7,   0.00,   0.00, 1003.0,   87.0, -999.0
08-09-2022, 00:46:14,    166,    0.0,   12.7,   0.00,   0.00, 1002.9,   86.8, -999.0
08-09-2022, 00:46:24,    166,    0.7,   12.7,   0.00,   0.00, 1003.0,   87.1, -999.0
08-09-2022, 00:46:34,    166,    0.0,   12.7,   0.00,   0.00, 1002.9,   86.9, -999.0